User: anonymous
Location: Unspecified
(0.0000°N, 0.0000°E)
Time: 15:52:59
(UTC+02:00)
Language:

Cosmos 407 Rocket - Orbit

View from above orbital plane
View from above orbital plane
View from above satellite
View from above satellite

Ground track
Ground track

The orbit data is extracted from the following two-line orbital elements,

1 05175U 71035B   14212.95017654  .00000160  00000-0  61951-4 0  4674
2 05175 074.0506 343.0440 0029206 091.9456 268.5043 14.37486606263883
Epoch (UTC): 31 July 2014 22:48:15
Eccentricity: 0.0029206
inclination: 74.0506°
perigee height: 746 km
apogee height: 787 km
right ascension of ascending node: 343.0440°
argument of perigee: 91.9456°
revolutions per day: 14.37486606
mean anomaly at epoch: 268.5043°
orbit number at epoch: 26388

The dashed part of the orbit path shows where the satellite is in the earth's shadow,  

DLR